User: anonymous   Login
Location: Copper Breaks State Park
(34.1132°N, 99.7492°W)
Time: 22:41:53
(UTC-05:00)
Language:

SL-16 R/B - Orbit

View from above orbital plane
View from above orbital plane
View from above satellite
View from above satellite

Ground track
Ground track

The orbit data is extracted from the following two-line orbital elements,

1 27006U 01056F   17117.94795098 -.00000047 +00000-0 -52630-5 0  9999
2 27006 099.3051 260.6958 0015502 081.6008 025.9791 13.70971447769521
Epoch (UTC): 27 April 2017 22:45:02
Eccentricity: 0.0015502
inclination: 99.3051°
perigee height: 984 km
apogee height: 1007 km
right ascension of ascending node: 260.6958°
argument of perigee: 81.6008°
revolutions per day: 13.70971447
mean anomaly at epoch: 25.9791°
orbit number at epoch: 76952

The dashed part of the orbit path shows where the satellite is in the earth's shadow,  

DLR